[[{"header":{"parameterUnit":"m.s-1","parameterCategory":1,"la1":30.2991,"la2":30.254,"lo1":-89.0895,"lo2":-89.0444,"dy":0.0017,"dx":0.0017,"nx":28,"ny":28,"refTime":"2024-08-11T21:00:00:Z","depth":0,"parameterNumber":2,"parameterNumberName":"U-component_of_WINDS"},"data":[0,0,0,0,0,0,0,0,0,0,0,0,0,0,0,0,0,0,0,0,0,0,0,0,0,0,0,0,0,0,0,0,0,0,0,0,0,0,0,0,0,0,0,0,0,0,0,0,0,0,0,0,0,0,0,0,0,0,3.1947,3.1948,0,3.2016,3.2017,3.2018,3.1941,3.1938,3.1935,3.1932,3.2004,3.2009,3.2013,0,0,0,0,0,0,0,0,0,0,0,0,0,3.1748,3.1752,3.1947,3.1948,3.1949,3.2016,3.2017,3.2018,3.1941,3.1937,3.1934,3.1931,3.2003,3.2008,3.2014,0,0,0,0,0,0,0,0,0,0,0,0,0,3.1828,3.1754,3.1947,3.1919,3.1917,3.2016,3.2017,3.2018,3.1942,3.1937,3.1933,3.1929,3.2001,3.2007,3.2014,3.2145,0,0,3.2036,3.2039,0,0,0,0,0,0,0,0,3.1823,3.1835,3.1922,3.1921,3.1919,3.1965,3.1973,3.2061,3.1943,3.1932,3.1932,3.1927,3.1995,3.2002,3.2025,3.2149,3.2152,3.2036,3.204,3.2043,3.2045,0,0,0,0,0,0,0,3.1818,3.1832,3.1974,3.1923,3.1922,3.1902,3.1909,3.1989,3.1987,3.1933,3.1928,3.1937,3.1993,3.2018,3.2026,3.2153,3.2036,3.2042,3.2047,3.2049,3.2383,3.2387,0,0,0,0,0,0,3.1816,3.1828,3.1972,3.1977,3.1859,3.1909,3.1916,3.1955,3.1986,3.1987,3.194,3.1933,3.2008,3.2018,3.2028,3.2179,3.2043,3.205,3.2054,3.2378,3.2384,3.2389,0,0,0,0,0,0,3.1812,3.1829,3.197,3.1901,3.1917,3.1917,3.1961,3.1958,3.1983,3.1992,3.1991,3.1966,3.2005,3.2018,3.2115,3.2181,3.2053,3.2059,3.2372,3.238,3.2386,3.2486,0,0,0,0,0,0,3.1806,3.1828,3.1879,3.1902,3.1921,3.2056,3.1965,3.1963,3.1995,3.1986,3.2016,3.2017,3.2003,3.2105,3.2122,3.2188,3.2065,3.2367,3.2376,3.2384,3.2477,3.2495,3.2511,0,0,0,0,0,3.18,3.1905,3.1881,3.1899,3.1984,3.206,3.2071,3.2052,3.2001,3.2051,3.2055,3.2016,3.2172,3.2116,3.2134,3.2203,3.2362,3.2373,3.2383,3.2469,3.2492,3.2511,0,0,0,0,0,0,3.189,3.1908,3.1882,3.1998,3.2028,3.2047,3.2109,3.2078,3.2124,3.2113,3.2089,3.2096,3.2198,3.2211,3.2149,3.2329,3.2258,3.2273,3.2317,3.2339,3.2356,3.235,3.2071,0,0,0,0,0,3.1924,3.1985,3.1997,3.2099,3.2115,3.211,3.2143,3.2125,3.2156,3.2168,3.218,3.2211,3.2267,3.2304,3.2356,3.2479,3.2482,3.2535,3.2552,3.2567,3.2579,3.2641,3.2663,3.2423,3.2423,3.2423,0,0,3.1994,3.2011,3.2051,3.2117,3.2138,3.22,3.2121,3.2192,3.2237,3.2179,3.227,3.228,3.2313,3.2423,3.2472,3.2436,3.2646,3.258,3.2591,3.2596,3.2654,3.2676,3.2697,3.243,3.2429,3.2428,0,0,3.2152,3.2173,3.2258,3.228,3.2312,3.2308,3.2328,3.2352,3.2355,3.2446,3.2403,3.2457,3.2554,3.2578,3.2603,3.2768,3.2731,3.2786,3.2875,3.2936,3.2955,3.2971,3.3026,3.3047,3.2798,3.2798,3.2799,0,3.2235,3.2328,3.2306,3.2378,3.2407,3.2356,3.244,3.2463,3.2512,3.2532,3.2492,3.261,3.2629,3.2741,3.2781,3.2804,3.2825,3.2781,3.2954,3.297,3.2985,3.3038,3.3059,3.2805,3.2804,3.2803,3.2803,0,3.2426,3.2491,3.2555,3.26,3.2637,3.2716,3.2704,3.2744,3.2723,3.2723,3.2814,3.2835,3.2888,3.2914,3.2896,3.3023,3.3,3.2958,3.2885,3.3015,3.3063,3.3083,3.2813,3.2811,3.2809,3.2808,0,0,3.2644,3.2674,3.2698,3.2716,3.2747,3.2796,3.2871,3.2922,3.2955,3.299,3.305,3.3132,3.3092,3.312,3.3104,3.3158,3.3282,3.3108,3.3108,3.3137,3.3419,3.3448,3.3472,3.3259,3.3263,3.3266,3.3415,0,3.28,3.2929,3.291,3.3034,3.3091,3.3042,3.3107,3.3133,3.3134,3.3182,3.3184,3.3241,3.3186,3.3201,3.3253,3.3256,3.3338,3.3245,3.3313,3.3316,3.3303,3.3498,3.353,3.367,3.3434,3.3437,3.344,0,3.2999,3.3038,3.3167,3.3186,3.3209,3.3268,3.331,3.3359,3.3386,3.3382,3.3413,3.3386,3.3459,3.3387,3.3486,3.3424,3.3451,3.3456,3.3461,3.3464,3.3384,3.3503,3.3714,3.3734,3.347,3.3468,3.3466,0,3.314,3.3226,3.3313,3.3331,3.3355,3.3397,3.3409,3.3432,3.3462,3.35,3.3519,3.3567,3.3591,3.3628,3.3614,3.3563,3.3715,3.3642,3.3712,3.3712,3.3744,3.3742,3.3959,3.3767,3.3767,3.3766,3.3766,0,3.3314,3.3394,3.3376,3.3429,3.3517,3.3494,3.3581,3.3587,3.3607,3.366,3.3622,3.3673,3.3652,3.3701,3.3691,3.3772,3.3785,3.3783,3.3779,3.3785,3.3785,3.38,3.3788,3.3772,3.3771,3.377,3.3769,0,3.3486,3.3477,3.3568,3.3583,3.3589,3.3652,3.3664,3.3714,3.3711,3.3778,3.3793,3.3789,3.3844,3.3834,3.3896,3.3888,3.399,3.3975,3.398,3.3975,3.4044,3.4036,3.4276,3.4305,3.4098,3.41,3.4101,0,3.3596,3.3656,3.3676,3.3708,3.3723,3.3776,3.3806,3.3786,3.3818,3.3852,3.3897,3.3948,3.3988,3.4078,3.408,3.4126,3.4111,3.4191,3.4117,3.412,3.4107,3.4102,3.4107,3.4205,3.4208,3.421,3.4211,0,3.3791,3.3783,3.3828,3.387,3.3907,3.394,3.3969,3.3998,3.3979,3.4018,3.4073,3.4104,3.4165,3.4215,3.4257,3.4269,3.4237,3.4235,3.4253,3.4258,3.4256,3.4254,3.4016,3.4229,3.4227,3.4226,3.4225,3.4224,3.3933,3.3982,3.4003,3.4053,3.4073,3.41,3.4146,3.4148,3.4193,3.424,3.4226,3.4288,3.431,3.4363,3.438,3.4427,3.4397,3.4424,3.443,3.4436,3.4443,3.4251,3.4436,3.4435,3.4435,3.4434,3.4434,0,3.4123,3.4133,3.418,3.422,3.4259,3.4225,3.4254,3.4289,3.4343,3.4367,3.4406,3.4467,3.4516,3.4521,3.4566,3.4603,3.4589,3.4615,3.4611,3.4613,3.4469,3.4447,3.4625,3.4625,3.4625,3.4625,3.4625,3.4625,3.4226,3.4306,3.43,3.4389,3.4399,3.4458,3.4477,3.4502,3.452,3.459,3.4629,3.4632,3.4648,3.4693,3.4735,3.4735,3.4752,3.4784,3.4778,3.4643,3.4624,3.4605,3.4585,3.4788,3.4789,3.4917,3.4918,3.4919]},{"header":{"parameterUnit":"m.s-1","parameterCategory":1,"la1":30.2991,"la2":30.254,"lo1":-89.0895,"lo2":-89.0444,"dy":0.0017,"dx":0.0017,"nx":28,"ny":28,"refTime":"2024-08-11T21:00:00:Z","depth":0,"parameterNumber":3,"parameterNumberName":"V-component_of_WINDS"},"data":[0,0,0,0,0,0,0,0,0,0,0,0,0,0,0,0,0,0,0,0,0,0,0,0,0,0,0,0,0,0,0,0,0,0,0,0,0,0,0,0,0,0,0,0,0,0,0,0,0,0,0,0,0,0,0,0,0,0,2.2069,2.2069,0,2.2097,2.2097,2.2098,2.2058,2.2056,2.2055,2.2054,2.2081,2.2083,2.2085,0,0,0,0,0,0,0,0,0,0,0,0,0,2.1977,2.1979,2.2069,2.2069,2.2069,2.2097,2.2097,2.2098,2.2058,2.2056,2.2055,2.2053,2.2081,2.2083,2.2085,0,0,0,0,0,0,0,0,0,0,0,0,0,2.2012,2.198,2.2068,2.2053,2.2052,2.2097,2.2097,2.2098,2.2058,2.2056,2.2054,2.2052,2.208,2.2083,2.2086,2.2147,0,0,2.2095,2.2097,0,0,0,0,0,0,0,0,2.201,2.2016,2.2055,2.2054,2.2053,2.2072,2.2075,2.2114,2.2059,2.2056,2.2054,2.2051,2.208,2.2083,2.2093,2.2149,2.215,2.2095,2.2097,2.2099,2.21,0,0,0,0,0,0,0,2.2008,2.2014,2.208,2.2055,2.2054,2.2043,2.2046,2.2082,2.2079,2.2056,2.2053,2.2057,2.2079,2.209,2.2093,2.215,2.2095,2.2098,2.21,2.2101,2.2256,2.2258,0,0,0,0,0,0,2.2008,2.2012,2.2079,2.2081,2.2026,2.2047,2.205,2.2068,2.2079,2.2078,2.2059,2.2055,2.2085,2.2089,2.2094,2.2165,2.2099,2.2102,2.2103,2.2254,2.2256,2.2259,0,0,0,0,0,0,2.2006,2.2014,2.2078,2.2046,2.2053,2.2051,2.2071,2.2069,2.208,2.2081,2.208,2.2071,2.2084,2.2089,2.2134,2.2165,2.2103,2.2106,2.2251,2.2254,2.2258,2.2309,0,0,0,0,0,0,2.2003,2.2014,2.2038,2.2047,2.2055,2.2118,2.2073,2.2072,2.2086,2.2081,2.2092,2.2092,2.2083,2.213,2.2137,2.2168,2.2108,2.2248,2.2252,2.2256,2.2304,2.2313,2.2321,0,0,0,0,0,2.2,2.2051,2.2039,2.2047,2.2085,2.212,2.2125,2.2114,2.2089,2.2112,2.2112,2.2091,2.2161,2.2134,2.2142,2.2175,2.2246,2.2251,2.2256,2.23,2.2312,2.2321,0,0,0,0,0,0,2.2046,2.2052,2.2039,2.2094,2.2107,2.2113,2.2143,2.2127,2.2146,2.2141,2.2126,2.2129,2.2176,2.218,2.2151,2.2234,2.2199,2.2206,2.223,2.2241,2.2249,2.2246,2.2111,0,0,0,0,0,2.2062,2.2091,2.2095,2.2143,2.215,2.2146,2.216,2.2151,2.2163,2.2168,2.2172,2.2184,2.2208,2.2225,2.2248,2.2305,2.2305,2.2331,2.234,2.2347,2.2353,2.2381,2.2392,2.2275,2.2275,2.2275,0,0,2.2096,2.2103,2.2122,2.2152,2.2161,2.219,2.215,2.2183,2.2204,2.2173,2.2215,2.2218,2.2231,2.2281,2.2304,2.2286,2.2385,2.2353,2.2359,2.2361,2.2387,2.2398,2.2408,2.2279,2.2278,2.2278,0,0,2.2173,2.2182,2.2222,2.2232,2.2246,2.2242,2.2252,2.2261,2.2261,2.2303,2.228,2.2305,2.2348,2.2357,2.2368,2.2447,2.2427,2.2455,2.2499,2.2527,2.2536,2.2544,2.257,2.258,2.2461,2.2461,2.2461,0,2.2214,2.2257,2.2245,2.2279,2.2292,2.2266,2.2306,2.2315,2.2336,2.2345,2.2325,2.2377,2.2384,2.2436,2.2455,2.2465,2.2474,2.2453,2.2536,2.2544,2.2551,2.2576,2.2586,2.2464,2.2463,2.2463,2.2463,0,2.2305,2.2335,2.2366,2.2386,2.2403,2.244,2.2433,2.2451,2.244,2.2438,2.248,2.2487,2.251,2.2522,2.2511,2.2571,2.256,2.2538,2.2502,2.2565,2.2588,2.2598,2.2468,2.2467,2.2466,2.2465,0,0,2.2411,2.2424,2.2435,2.2443,2.2456,2.2479,2.2514,2.2536,2.2551,2.2566,2.2594,2.263,2.261,2.2622,2.2612,2.2637,2.2697,2.2612,2.2612,2.2626,2.2762,2.2776,2.2788,2.2685,2.2687,2.2688,2.276,0,2.2486,2.2547,2.2537,2.2595,2.2622,2.2597,2.2627,2.2638,2.2637,2.2659,2.2658,2.2683,2.2655,2.2662,2.2686,2.2685,2.2724,2.268,2.2709,2.271,2.2705,2.28,2.2817,2.2884,2.2769,2.2771,2.2772,0,2.2582,2.26,2.2661,2.2668,2.2679,2.2707,2.2725,2.2747,2.2758,2.2756,2.2769,2.2754,2.2787,2.2752,2.2797,2.2767,2.2779,2.278,2.2783,2.2784,2.2744,2.2802,2.2905,2.2915,2.2786,2.2785,2.2784,0,2.2651,2.2691,2.2732,2.274,2.275,2.2769,2.2774,2.2783,2.2797,2.2813,2.2821,2.2842,2.2852,2.2868,2.2859,2.2834,2.2905,2.2869,2.2902,2.2903,2.2917,2.2916,2.3022,2.2928,2.2927,2.2927,2.2927,0,2.2735,2.2773,2.2762,2.2788,2.2829,2.2817,2.2857,2.2859,2.2867,2.2891,2.2872,2.2895,2.2882,2.2903,2.2897,2.2934,2.2939,2.2937,2.2935,2.2938,2.2938,2.2944,2.2939,2.293,2.2929,2.2929,2.2928,0,2.2818,2.2813,2.2856,2.2862,2.2864,2.2894,2.2898,2.2921,2.2919,2.2949,2.2956,2.2952,2.2976,2.2969,2.2995,2.2991,2.3037,2.303,2.3034,2.3031,2.3064,2.3061,2.3176,2.319,2.3089,2.309,2.309,0,2.2872,2.29,2.2909,2.2923,2.293,2.2954,2.2968,2.2957,2.2971,2.2985,2.3006,2.3029,2.3046,2.3086,2.3085,2.3105,2.3097,2.3136,2.3099,2.3101,2.3095,2.3093,2.3095,2.3143,2.3144,2.3145,2.3145,0,2.2966,2.2962,2.2982,2.3002,2.3019,2.3034,2.3047,2.306,2.3049,2.3067,2.3091,2.3105,2.3132,2.3154,2.3172,2.3176,2.3158,2.3157,2.3165,2.3169,2.3169,2.3167,2.3052,2.3154,2.3153,2.3153,2.3152,2.3152,2.3035,2.3058,2.3067,2.3091,2.3099,2.3111,2.3133,2.3133,2.3153,2.3174,2.3166,2.3194,2.3203,2.3225,2.3231,2.3252,2.3237,2.325,2.3253,2.3256,2.3259,2.3167,2.3256,2.3256,2.3255,2.3255,2.3255,0,2.3126,2.3131,2.3153,2.3171,2.3189,2.3172,2.3185,2.3201,2.3226,2.3236,2.3253,2.3281,2.3302,2.3302,2.3322,2.3339,2.3331,2.3344,2.3342,2.3343,2.3272,2.3262,2.335,2.335,2.335,2.335,2.3349,2.3349,2.3176,2.3214,2.3211,2.3252,2.3257,2.3284,2.3293,2.3303,2.3311,2.3343,2.336,2.3361,2.3366,2.3386,2.3404,2.3404,2.3411,2.3427,2.3423,2.3357,2.3348,2.3339,2.3329,2.3429,2.3429,2.3491,2.3492,2.3492]}]]